| time (UTC) | temp F | wind direction | speed MPH | gust MPH | rain 1hr in | rain 24hr in | rain mn in | humidity % | barometer mb |
| 20260903081944 | 68 | 191 | 0.0 | 0.0 | 0.00 | 0.59 | 0.13 | 100 | 1014.5 |
| 20260903081006 | 68 | 191 | 0.0 | 0.0 | 0.00 | 0.59 | 0.13 | 99 | 1014.6 |
| 20260903080026 | 68 | 191 | 0.0 | 0.0 | 0.00 | 0.59 | 0.13 | 99 | 1014.5 |
| 20260903074954 | 68 | 191 | 0.0 | 0.0 | 0.00 | 0.59 | 0.13 | 99 | 1014.5 |
| 20260903073940 | 68 | 191 | 0.0 | 0.0 | 0.00 | 0.59 | 0.13 | 99 | 1014.6 |
| 20260903072942 | 68 | 191 | 0.0 | 0.0 | 0.00 | 0.59 | 0.13 | 99 | 1014.8 |
| 20260903071948 | 68 | 191 | 0.0 | 0.0 | 0.00 | 0.59 | 0.13 | 99 | 1014.9 |
| 20260903070923 | 68 | 192 | 0.0 | 0.0 | 0.00 | 0.59 | 0.13 | 99 | 1015.3 |
| 20260903065948 | 68 | 191 | 0.0 | 0.0 | 0.00 | 0.59 | 0.13 | 99 | 1015.0 |
| 20260903064935 | 68 | 191 | 0.0 | 0.0 | 0.00 | 0.59 | 0.13 | 99 | 1014.9 |
| 20260903063935 | 68 | 191 | 0.0 | 0.0 | 0.00 | 0.59 | 0.13 | 99 | 1014.8 |
| 20260903062922 | 68 | 191 | 0.0 | 0.0 | 0.00 | 0.59 | 0.13 | 99 | 1015.0 |
| 20260903061912 | 68 | 191 | 0.0 | 0.0 | 0.00 | 0.58 | 0.12 | 98 | 1015.5 |
| 20260903060920 | 68 | 191 | 0.0 | 0.0 | 0.00 | 0.58 | 0.12 | 98 | 1015.8 |
| 20260903055935 | 68 | 191 | 0.0 | 0.0 | 0.06 | 0.58 | 0.12 | 98 | 1015.6 |
| 20260903054926 | 68 | 218 | 0.0 | 0.0 | 0.06 | 0.56 | 0.10 | 98 | 1015.5 |
| 20260903053916 | 68 | 218 | 0.0 | 0.0 | 0.16 | 0.55 | 0.10 | 98 | 1016.1 |
| 20260903052858 | 69 | 169 | 0.0 | 0.0 | 0.16 | 0.52 | 0.06 | 98 | 1017.0 |
| 20260903051841 | 69 | 168 | 0.0 | 0.0 | 0.12 | 0.48 | 0.03 | 98 | 1017.0 |
| 20260903050858 | 69 | 187 | 0.0 | 0.0 | 0.00 | 0.47 | 0.01 | 98 | 1016.8 |
| 20260903044703 | 69 | 188 | 0.0 | 0.0 | 0.00 | 0.46 | 0.00 | 98 | 1017.0 |
| 20260903043643 | 69 | 187 | 0.0 | 0.0 | 0.00 | 0.46 | 0.00 | 97 | 1016.9 |
| 20260903042707 | 68 | 188 | 0.0 | 0.0 | 0.00 | 0.46 | 0.00 | 97 | 1016.8 |
| 20260903041641 | 69 | 187 | 0.0 | 0.0 | 0.00 | 0.46 | 0.00 | 97 | 1017.0 |
| 20260903040634 | 69 | 188 | 0.0 | 0.0 | 0.00 | 0.46 | 0.00 | 97 | 1017.3 |
| 20260903035657 | 69 | 188 | 0.0 | 0.0 | 0.00 | 0.46 | 0.46 | 97 | 1017.4 |
| 20260903032413 | 68 | 177 | 0.0 | 0.0 | 0.00 | 0.46 | 0.46 | 97 | 1017.0 |
| 20260903025113 | 68 | 177 | 0.0 | 0.0 | 0.00 | 0.46 | 0.46 | 97 | 1017.8 |
| 20260903024132 | 68 | 179 | 0.0 | 0.0 | 0.00 | 0.46 | 0.46 | 97 | 1017.9 |
| 20260903023157 | 68 | 179 | 0.0 | 0.0 | 0.00 | 0.46 | 0.46 | 97 | 1017.7 |
| 20260903022127 | 68 | 179 | 0.0 | 0.0 | 0.00 | 0.46 | 0.46 | 97 | 1017.8 |
| 20260903021121 | 68 | 179 | 0.0 | 0.0 | 0.00 | 0.46 | 0.46 | 98 | 1017.9 |
| 20260903014926 | 68 | 219 | 0.0 | 1.0 | 0.00 | 0.46 | 0.46 | 98 | 1018.0 |
| 20260903013939 | 68 | 72 | 0.0 | 0.0 | 0.00 | 0.46 | 0.46 | 98 | 1018.0 |
| 20260903012907 | 68 | 145 | 0.0 | 0.0 | 0.00 | 0.46 | 0.46 | 99 | 1018.3 |
| 20260903010703 | 67 | 146 | 0.0 | 0.0 | 0.00 | 0.46 | 0.46 | 99 | 1018.3 |
| 20260903005701 | 67 | 145 | 0.0 | 0.0 | 0.00 | 0.46 | 0.46 | 99 | 1018.4 |
| 20260903003615 | 67 | 146 | 0.0 | 0.0 | 0.00 | 0.46 | 0.46 | 99 | 1018.7 |
| 20260903002634 | 67 | 145 | 0.0 | 0.0 | 0.00 | 0.46 | 0.46 | 98 | 1018.2 |
| 20260903001601 | 67 | 145 | 0.0 | 0.0 | 0.00 | 0.46 | 0.46 | 98 | 1017.8 |
| 20260902234251 | 67 | 145 | 0.0 | 0.0 | 0.00 | 0.46 | 0.46 | 98 | 1017.7 |
| 20260902233218 | 67 | 146 | 0.0 | 0.0 | 0.00 | 0.46 | 0.46 | 98 | 1018.0 |
| 20260902232146 | 67 | 145 | 0.0 | 0.0 | 0.00 | 0.46 | 0.46 | 97 | 1018.1 |
| 20260902230037 | 68 | 123 | 0.0 | 0.0 | 0.00 | 0.46 | 0.46 | 96 | 1018.3 |
| 20260902225035 | 68 | 122 | 0.0 | 0.0 | 0.00 | 0.46 | 0.46 | 96 | 1018.7 |
| 20260902224055 | 68 | 123 | 0.0 | 0.0 | 0.00 | 0.46 | 0.46 | 96 | 1019.1 |
| 20260902223041 | 68 | 123 | 0.0 | 0.0 | 0.00 | 0.46 | 0.46 | 95 | 1019.1 |
| 20260902220947 | 69 | 122 | 0.0 | 0.0 | 0.00 | 0.46 | 0.46 | 96 | 1019.3 |
| 20260902215945 | 69 | 122 | 0.0 | 0.0 | 0.00 | 0.46 | 0.46 | 95 | 1019.4 |
| 20260902214943 | 70 | 136 | 0.0 | 0.0 | 0.00 | 0.46 | 0.46 | 95 | 1019.1 |
| 20260902213937 | 69 | 98 | 0.0 | 0.0 | 0.00 | 0.46 | 0.46 | 96 | 1018.8 |
| 20260902212932 | 69 | 98 | 0.0 | 0.0 | 0.00 | 0.46 | 0.46 | 96 | 1019.0 |
| 20260902211936 | 69 | 98 | 0.0 | 0.0 | 0.00 | 0.46 | 0.46 | 96 | 1018.9 |
| 20260902210955 | 68 | 98 | 0.0 | 1.0 | 0.00 | 0.46 | 0.46 | 96 | 1018.9 |
| 20260902210014 | 68 | 271 | 0.0 | 1.0 | 0.00 | 0.46 | 0.46 | 96 | 1018.8 |
| 20260902205011 | 68 | 193 | 0.0 | 1.0 | 0.00 | 0.46 | 0.46 | 97 | 1018.6 |
| 20260902204035 | 68 | 165 | 0.0 | 0.0 | 0.00 | 0.46 | 0.46 | 97 | 1018.5 |
| 20260902203007 | 67 | 264 | 0.0 | 0.0 | 0.04 | 0.46 | 0.46 | 97 | 1018.7 |
| 20260902201959 | 67 | 188 | 0.0 | 0.0 | 0.06 | 0.46 | 0.46 | 97 | 1018.8 |
| 20260902200928 | 67 | 174 | 0.0 | 0.0 | 0.05 | 0.45 | 0.45 | 97 | 1018.8 |
| 20260902195854 | 67 | 176 | 0.0 | 0.0 | 0.09 | 0.43 | 0.43 | 97 | 1019.0 |
| 20260902194842 | 67 | 176 | 0.0 | 0.0 | 0.04 | 0.42 | 0.43 | 97 | 1019.1 |
| 20260902192731 | 66 | 186 | 0.0 | 0.0 | 0.18 | 0.39 | 0.40 | 96 | 1019.2 |
| 20260902191705 | 67 | 203 | 0.0 | 0.0 | 0.55 | 0.32 | 0.35 | 94 | 1019.8 |
| 20260902190656 | 68 | 176 | 0.0 | 0.0 | 0.93 | 0.19 | 0.21 | 90 | 1020.1 |
| 20260902185628 | 70 | 173 | 0.0 | 0.0 | 0.00 | 0.00 | 0.00 | 86 | 1020.2 |
| 20260902183441 | 70 | 172 | 0.0 | 6.0 | 0.00 | 0.00 | 0.00 | 83 | 1019.1 |
| 20260902182429 | 71 | 152 | 0.0 | 2.0 | 0.00 | 0.00 | 0.00 | 83 | 1018.9 |
| 20260902181426 | 71 | 248 | 1.0 | 7.0 | 0.00 | 0.00 | 0.00 | 82 | 1019.1 |
| 20260902180411 | 71 | 260 | 1.0 | 5.0 | 0.00 | 0.00 | 0.00 | 82 | 1019.5 |
| 20260902175423 | 71 | 201 | 1.0 | 5.0 | 0.00 | 0.00 | 0.00 | 83 | 1019.5 |
| 20260902174444 | 71 | 258 | 0.0 | 2.0 | 0.00 | 0.00 | 0.00 | 84 | 1019.7 |
| 20260902173415 | 70 | 199 | 0.0 | 2.0 | 0.00 | 0.00 | 0.00 | 83 | 1019.7 |
| 20260902172437 | 70 | 20 | 0.0 | 2.0 | 0.00 | 0.00 | 0.00 | 84 | 1019.7 |
| 20260902171430 | 71 | 214 | 0.0 | 1.0 | 0.00 | 0.00 | 0.00 | 84 | 1019.8 |
| 20260902170421 | 71 | 179 | 0.0 | 1.0 | 0.00 | 0.00 | 0.00 | 84 | 1019.9 |
| 20260902165434 | 70 | 139 | 0.0 | 0.0 | 0.00 | 0.00 | 0.00 | 84 | 1019.8 |
| 20260902164435 | 70 | 160 | 0.0 | 5.0 | 0.00 | 0.00 | 0.00 | 84 | 1019.7 |
| 20260902163445 | 70 | 224 | 0.0 | 3.0 | 0.00 | 0.00 | 0.00 | 84 | 1019.7 |
| 20260902162419 | 70 | 292 | 0.0 | 5.0 | 0.00 | 0.00 | 0.00 | 84 | 1019.9 |
| 20260902161441 | 71 | 47 | 0.0 | 2.0 | 0.00 | 0.00 | 0.00 | 83 | 1019.7 |
| 20260902155243 | 71 | 86 | 0.0 | 7.0 | 0.00 | 0.04 | 0.00 | 83 | 1019.9 |
| 20260902154302 | 71 | 210 | 0.0 | 7.0 | 0.00 | 0.05 | 0.00 | 81 | 1019.9 |
| 20260902153258 | 71 | 46 | 0.0 | 6.0 | 0.00 | 0.06 | 0.00 | 82 | 1020.0 |
| 20260902152253 | 71 | 174 | 0.0 | 6.0 | 0.00 | 0.06 | 0.00 | 82 | 1019.7 |
| 20260902151303 | 71 | 188 | 0.0 | 4.0 | 0.00 | 0.06 | 0.00 | 82 | 1019.9 |
| 20260902150310 | 70 | 76 | 0.0 | 5.0 | 0.00 | 0.06 | 0.00 | 83 | 1019.9 |
| 20260902145236 | 70 | 172 | 0.0 | 2.0 | 0.00 | 0.06 | 0.00 | 84 | 1020.0 |
| 20260902143111 | 69 | 214 | 0.0 | 3.0 | 0.00 | 0.07 | 0.00 | 85 | 1019.9 |
| 20260902142054 | 68 | 172 | 0.0 | 3.0 | 0.00 | 0.10 | 0.00 | 87 | 1020.1 |
| 20260902141101 | 68 | 197 | 0.0 | 3.0 | 0.00 | 0.13 | 0.00 | 87 | 1020.4 |
| 20260902140109 | 67 | 177 | 0.0 | 2.0 | 0.00 | 0.13 | 0.00 | 88 | 1020.2 |
| 20260902135058 | 67 | 238 | 0.0 | 1.0 | 0.00 | 0.13 | 0.00 | 90 | 1020.0 |
| 20260902134116 | 67 | 129 | 0.0 | 1.0 | 0.00 | 0.16 | 0.00 | 90 | 1020.0 |
| 20260902133046 | 66 | 274 | 0.0 | 1.0 | 0.00 | 0.16 | 0.00 | 90 | 1019.9 |
| 20260902132041 | 66 | 298 | 0.0 | 2.0 | 0.00 | 0.16 | 0.00 | 90 | 1019.7 |
| 20260902131024 | 66 | 225 | 0.0 | 2.0 | 0.00 | 0.16 | 0.00 | 90 | 1019.7 |
| 20260902130004 | 66 | 181 | 0.0 | 0.0 | 0.00 | 0.16 | 0.00 | 90 | 1019.8 |
| 20260902124942 | 65 | 235 | 0.0 | 1.0 | 0.00 | 0.16 | 0.00 | 90 | 1019.7 |
| 20260902123933 | 65 | 179 | 0.0 | 0.0 | 0.00 | 0.16 | 0.00 | 91 | 1019.6 |
| 20260902122910 | 65 | 283 | 0.0 | 2.0 | 0.00 | 0.16 | 0.00 | 91 | 1019.6 |
| 20260902121852 | 65 | 188 | 0.0 | 3.0 | 0.00 | 0.16 | 0.00 | 91 | 1019.5 |
| 20260902120910 | 65 | 245 | 0.0 | 3.0 | 0.00 | 0.16 | 0.00 | 91 | 1019.5 |
| 20260902115935 | 65 | 183 | 0.0 | 1.0 | 0.00 | 0.17 | 0.00 | 92 | 1019.6 |
| 20260902113748 | 64 | 158 | 0.0 | 0.0 | 0.00 | 0.17 | 0.00 | 93 | 1019.7 |
| 20260902112720 | 64 | 303 | 0.0 | 0.0 | 0.00 | 0.17 | 0.00 | 93 | 1019.8 |
| 20260902111741 | 64 | 184 | 0.0 | 0.0 | 0.00 | 0.17 | 0.00 | 93 | 1019.7 |